This demonstration page uses our WeatherBlox Daily Observations layout. Learn more.

Left ArrowRight Arrow

39.29038, -76.61219

Hourly Observations for August 19, 2020

Temp ( °F °C ) Dew Point ( °F °C ) Humidity (%) Winds ( mph kmh ) Pressure ( in mb ) Visibility ( mi km ) Precip ( " mm )
12:54 am 00:54 Partly Cloudy 70 21.1 66 18.9 87 87 SW 5 7 29.88 1012 10 16 0.00 0.00
1:54 am 01:54 Partly Cloudy 69 20.6 65 18.3 87 87 WNW 3 6 29.88 1012 10 16 0.00 0.00
2:54 am 02:54 Mostly Cloudy 69 20.6 65 18.3 87 87 Calm 29.87 1012 10 16 0.00 0.00
3:54 am 03:54 Cloudy 70 21.1 65 18.3 84 84 SSW 3 6 29.87 1012 10 16 0.00 0.00
4:54 am 04:54 Cloudy 70 21.1 65 18.3 84 84 SSW 5 7 29.86 1011 10 16 0.00 0.00
5:54 am 05:54 Cloudy with Light Rain 70 21.1 66 18.9 87 87 SW 9 15 29.88 1012 10 16 0.02 0.51
6:54 am 06:54 Cloudy with Light Rain 69 20.6 65 18.3 87 87 WNW 9 15 29.90 1013 6 10 0.03 0.76
7:43 am 07:43 Cloudy with Thunderstorms 67 19.4 64 17.8 91 91 WNW 10 17 29.92 1013 6 10 0.02 0.51
7:47 am 07:47 Cloudy with Thunderstorms 67 19.4 64 17.8 91 91 WNW 10 17 29.93 1013 1 2 0.06 1.52
7:54 am 07:54 Cloudy with Strong Thunderstorms 67 19.4 64 17.8 91 91 SW 10 17 29.94 1014 1 1 0.30 7.62
8:07 am 08:07 Cloudy with Strong Thunderstorms 67 19.4 64 17.8 91 91 SW 7 11 29.95 1014 1 2 0.20 5.08
8:18 am 08:18 Cloudy with Heavy Rain 67 19.4 64 17.8 91 91 WNW 5 7 29.94 1014 1 2 0.25 6.35
8:30 am 08:30 Cloudy with Rain 67 19.4 64 17.8 91 91 NNW 6 9 29.93 1013 3 4 0.28 7.11
8:50 am 08:50 Cloudy with Light Rain 66 19 64 18 94 94 NNW 6 9 29.93 1013 5 8 0.28 7.11
8:54 am 08:54 Cloudy with Light Rain 67 19.4 64 17.8 91 91 NW 6 9 29.93 1013 6 10 0.28 7.11
9:54 am 09:54 Cloudy 70 21.1 66 18.9 87 87 VRB 3 6 29.94 1014 10 16 0.00 0.00
10:54 am 10:54 Mostly Cloudy 72 22.2 65 18.3 79 79 SW 3 6 29.95 1014 10 16 0.00 0.00
11:54 am 11:54 Mostly Cloudy 75 23.9 66 18.9 74 74 VRB 3 6 29.94 1014 10 16 0.00 0.00
12:54 pm 12:54 Partly Cloudy 79 26.1 66 18.9 65 65 Calm 29.93 1014 10 16 0.00 0.00
1:54 pm 13:54 Mostly Sunny 80 26.7 63 17.2 56 56 N 6 9 29.92 1013 10 16 0.00 0.00
2:54 pm 14:54 Partly Cloudy 84 28.9 64 17.8 51 51 VRB 6 9 29.91 1013 10 16 0.00 0.00
3:54 pm 15:54 Partly Cloudy 83 28.3 61 16.1 48 48 VRB 5 7 29.91 1013 10 16 0.00 0.00
4:54 pm 16:54 Mostly Cloudy 82 27.8 60 15.6 47 47 N 6 9 29.90 1013 10 16 0.00 0.00
5:54 pm 17:54 Partly Cloudy 84 28.9 60 15.6 44 44 VRB 6 9 29.91 1013 10 16 0.00 0.00
6:54 pm 18:54 Mostly Sunny 83 28.3 60 15.6 46 46 Calm 29.91 1013 10 16 0.00 0.00
7:54 pm 19:54 Mostly Sunny 78 25.6 66 18.9 67 67 ESE 6 9 29.92 1013 10 16 0.00 0.00
8:54 pm 20:54 Partly Cloudy 76 24.4 66 18.9 72 72 SSE 5 7 29.94 1014 10 16 0.00 0.00
9:54 pm 21:54 Partly Cloudy 73 22.8 67 19.4 81 81 Calm 29.97 1015 10 16 0.00 0.00
10:54 pm 22:54 Mostly Clear 69 20.6 66 18.9 90 90 NW 3 6 29.98 1015 10 16 0.00 0.00
11:54 pm 23:54 Partly Cloudy 68 20 65 18.3 90 90 Calm 29.99 1016 10 16 0.00 0.00

Powered by AerisWeather